Location: Devils Tower National Monument
(44.5904°N, 104.7201°W)
Time: 15:06:55
(UTC-07:00)

Envisat - Pass Details

Date: 03 February 2020
Orbit: 764 x 766 km, 98.1° (Epoch: 19 February)

Event Time Altitude Azimuth Distance (km) Brightness Sun altitude
Rises 05:19:06 0° 31° (NNE) 3,238 6.6 -21.0°
Reaches altitude 10° 05:22:29 10° 55° (NE) 2,305 6.2 -20.4°
Maximum altitude 05:25:18 15° 89° (E) 1,986 6.2 -19.9°
Drops below altitude 10° 05:28:05 10° 123° (ESE) 2,295 6.4 -19.4°
Sets 05:31:26 0° 146° (SSE) 3,215 6.8 -18.8°
